Home > Time Zones > World Clock > Weather > Qatar > Doha > Past weeks

Flag for Qatar Weather past 2 weeks in Doha, Qatar

Now
90 °F

Sunny.


Feels Like: 103 °F
Forecast: 80 / 100 °F
Wind: 3 mph from North

Location: Doha International Airport

Current Time: Oct 1, 2014 at 8:00:18 AM

Latest Report: Oct 1, 2014 at 7:00 AM


Visibility: 10 mi

Pressure: 29.86 "Hg

Humidity: 67%

Dew point: 77 °F

Location of DohaLocation

Historic Weather in Doha — Graph

°F

Doha temperature yesterday

Maximum temperature yesterday: 97 °F (at 10:30 AM)
Minimum temperature yesterday: 86 °F (at 2:00 AM)
Average temperature yesterday: 92 °F

Past Weeks' High & Low Weather Summary

 TemperatureHumidityPressure
High108 °F (Sep 24, 11:30 AM)84% (Sep 17, 2:00 AM)29.92 "Hg (Sep 17, 2:00 AM)
Low84 °F (Sep 21, 5:30 AM)12% (Sep 20, 1:00 PM)29.59 "Hg (Sep 17, 1:00 AM)
Average92 °F57%29.75 "Hg
* Reported Sep 16 6:00 AM — Oct 1 6:30 AM, Doha, Weather by CustomWeather, © 2014

Note: Actual official high and low records may vary slightly from our data, if they occured in-between our weather recording intervals... More about our weather records

Advertising

Doha weather history for previous 24 hours

 ConditionsComfort  
Time TempWeatherWind HumidityBarometerVisibility
6:30 AM
Oct 1
88 °FSunny.1 mph75%29.86 "Hg10 mi
5:30 AM86 °FPassing clouds.3 mph75%29.86 "HgN/A
5:00 AM86 °FWarm.N/A75%29.83 "HgN/A
4:30 AM86 °FClear.1 mph75%29.83 "Hg10 mi
4:00 AM86 °FClear.No wind75%29.83 "Hg10 mi
3:30 AM88 °FClear.No wind70%29.80 "Hg10 mi
3:00 AM88 °FClear.1 mph75%29.80 "Hg10 mi
2:30 AM88 °FClear.No wind75%29.80 "Hg10 mi
2:00 AM88 °FClear.2 mph70%29.83 "Hg10 mi
1:00 AM88 °FClear.2 mph66%29.83 "Hg10 mi
12:30 AM88 °FClear.3 mph66%29.83 "Hg10 mi
12:00 AM90 °FClear.3 mph63%29.83 "Hg10 mi
11:00 PM
Sep 30
90 °FClear.6 mph63%29.83 "Hg10 mi
10:30 PM90 °FClear.5 mph63%29.83 "Hg10 mi
10:00 PM90 °FClear.5 mph63%29.83 "Hg10 mi
9:00 PM90 °FClear.8 mph67%29.86 "Hg10 mi
8:00 PM90 °FClear.8 mph63%29.86 "Hg10 mi
7:00 PM91 °FClear.8 mph59%29.83 "Hg10 mi
6:30 PM91 °FClear.9 mph59%29.83 "Hg10 mi
6:00 PM91 °FClear.9 mph59%29.83 "Hg10 mi
5:00 PM91 °FPassing clouds.10 mph59%29.80 "HgN/A
4:00 PM93 °FPassing clouds.10 mph56%29.80 "HgN/A
3:00 PM95 °FPassing clouds.12 mph53%29.80 "HgN/A
2:00 PM95 °FPassing clouds.13 mph56%29.80 "HgN/A
1:30 PM95 °FPassing clouds.12 mph53%29.80 "HgN/A
1:00 PM95 °FPassing clouds.13 mph56%29.83 "HgN/A
12:30 PM97 °FPassing clouds.13 mph50%29.83 "HgN/A
12:00 PM97 °FPassing clouds.13 mph47%29.83 "HgN/A
11:30 AM97 °FPassing clouds.15 mph50%29.86 "HgN/A
11:00 AM95 °FPassing clouds.14 mph53%29.86 "HgN/A
10:30 AM97 °FPassing clouds.12 mph47%29.89 "HgN/A
10:00 AM95 °FPassing clouds.12 mph47%29.89 "HgN/A
9:30 AM95 °FPassing clouds.10 mph53%29.89 "HgN/A
9:00 AM93 °FPassing clouds.8 mph59%29.89 "HgN/A
8:30 AM91 °FPassing clouds.7 mph59%29.89 "HgN/A
8:00 AM91 °FPassing clouds.8 mph63%29.89 "HgN/A
Weather by CustomWeather, © 2014

See weather overviewHow to use our weather pages